User: anonymous   Login
Location: NJAA Observatory
(40.6819°N, 74.8979°W)
Time: 03:19:42
(UTC-04:00)
Language:

Meteor 2-9 Rocket - Orbit

View from above orbital plane
View from above orbital plane
View from above satellite
View from above satellite

Ground track
Ground track

The orbit data is extracted from the following two-line orbital elements,

1 13719U 82116B   16212.83442964  .00000011  00000-0 -94487-6 0  9992
2 13719  81.2567 315.1646 0071714 188.5496 287.3249 14.14585996734932
Epoch (UTC): 30 July 2016 20:01:34
Eccentricity: 0.0071714
inclination: 81.2567°
perigee height: 792 km
apogee height: 895 km
right ascension of ascending node: 315.1646°
argument of perigee: 188.5496°
revolutions per day: 14.14585996
mean anomaly at epoch: 287.3249°
orbit number at epoch: 73493

The dashed part of the orbit path shows where the satellite is in the earth's shadow,  

DLR